Location: Jackson Park
(37.2862°N, 79.9123°W)
Time: 19:53:23
(UTC+00:00)

Vanguard 2 Rocket - Pass Details

Date: 12 May 2026
Orbit: 553 x 3286 km, 32.9° (Epoch: 6 June)

Event Time Altitude Azimuth Distance (km) Brightness Sun altitude
Rises 23:07:50 0° 284° (WNW) 7,226 13.6 12.6°
Reaches altitude 10° 23:13:11 10° 278° (W) 6,235 14.0 11.5°
Maximum altitude 23:30:18 39° 219° (SW) 3,827 10.4 8.3°
Drops below altitude 10° 23:43:11 10° 156° (SSE) 4,711 10.2 5.8°
Sets 23:46:36 0° 149° (SSE) 5,367 10.4 5.2°
